Вернуться в каталог

SPACEMOBILE-009

АктивенСвязьVLEO
NORAD 69590·PAYLOAD·🇺🇸 United States

Запущен Jun 17, 2026 с Cape Canaveral Space Force Station

Loading…

Ближайшие Пролёты (ближайшие 24 часа)

TLE

СвежийSource: CelesTrak SupGP

Эпоха: Sep 14, 2026, 11:03 UTC

1 69590C 26139B   26257.46091435  .00003550  00000+0  19908-3 0  2573
2 69590  52.9925 217.2708 0002979 218.3133 123.5006 15.12866484    11

Отслеживайте SPACEMOBILE-009 в реальном времени с AllMySat

Download on the App Store